Flag for China Weather past 2 weeks in Langfang, Hebei, China

Now
72 °F

Passing clouds.


Feels Like: 77 °F
Forecast: 53 / 78 °F
Wind: 3 mph from Northwest

Location: Beijing Airport

Current Time: Sep 18, 2014 at 10:34:01 AM

Latest Report: Sep 18, 2014 at 10:00 AM


Visibility: N/A

Pressure: 30.18 "Hg

Humidity: 53%

Dew point: 54 °F

Location of LangfangLocation

Historic Weather in Langfang — Graph

°F

Langfang temperature yesterday

Maximum temperature yesterday: 73 °F (at 3:30 PM)
Minimum temperature yesterday: 57 °F (at 3:30 AM)
Average temperature yesterday: 65 °F

Past Weeks' High & Low Weather Summary

 TemperatureHumidityPressure
High93 °F (Sep 4, 1:30 PM)100% (Sep 4, 2:30 AM)30.18 "Hg (Sep 4, 2:30 AM)
Low52 °F (Sep 15, 5:30 AM)14% (Sep 15, 2:30 PM)29.62 "Hg (Sep 4, 2:00 PM)
Average71 °F66%29.92 "Hg
* Reported Sep 3 9:00 AM — Sep 18 9:30 AM, Langfang, Weather by CustomWeather, © 2014

Note: Actual official high and low records may vary slightly from our data, if they occured in-between our weather recording intervals... More about our weather records

Advertising

Langfang weather history for previous 24 hours

 ConditionsComfort  
Time TempWeatherWind HumidityBarometerVisibility
9:30 AM
Sep 18
70 °FPassing clouds.3 mph53%30.18 "HgN/A
9:00 AM68 °FPassing clouds.6 mph60%30.18 "HgN/A
8:30 AM66 °FPassing clouds.6 mph64%30.18 "HgN/A
8:00 AM63 °FClear.6 mph73%30.18 "Hg4 mi
7:30 AM59 °FClear.6 mph88%30.15 "Hg4 mi
7:00 AM57 °FFog.6 mph88%30.15 "Hg3 mi
6:30 AM54 °FFog.6 mph94%30.15 "Hg3 mi
6:00 AM54 °FFog.6 mph94%30.15 "Hg3 mi
5:30 AM54 °FFog.8 mph94%30.15 "Hg3 mi
5:00 AM54 °FFog.8 mph94%30.15 "Hg2 mi
4:30 AM55 °FFog.6 mph94%30.15 "Hg2 mi
4:00 AM52 °FFog.6 mph100%30.15 "Hg2 mi
3:30 AM54 °FFog.3 mph94%30.15 "Hg2 mi
3:00 AM55 °FFog.1 mph94%30.15 "Hg2 mi
2:30 AM54 °FFog.1 mph100%30.15 "Hg2 mi
2:00 AM55 °FFog.No wind94%30.15 "Hg3 mi
1:30 AM54 °FFog.No wind100%30.15 "Hg3 mi
1:00 AM55 °FClear.1 mph94%30.15 "Hg4 mi
12:30 AM55 °FClear.1 mph94%30.15 "Hg4 mi
12:00 AM55 °FClear.1 mph100%30.15 "Hg4 mi
11:30 PM
Sep 17
57 °FClear.1 mph94%30.15 "Hg4 mi
11:00 PM59 °FClear.1 mph82%30.15 "Hg5 mi
10:30 PM64 °FPassing clouds.3 mph68%30.15 "HgN/A
10:00 PM59 °FPassing clouds.3 mph88%30.15 "HgN/A
9:30 PM59 °FClear.1 mph82%30.15 "Hg10 mi
9:00 PM63 °FClear.1 mph73%30.15 "Hg10 mi
8:30 PM66 °FPassing clouds.6 mph64%30.15 "HgN/A
8:00 PM66 °FPassing clouds.6 mph64%30.15 "HgN/A
7:30 PM66 °FClear.6 mph64%30.12 "Hg10 mi
7:00 PM63 °FPassing clouds.3 mph73%30.12 "HgN/A
6:30 PM66 °FPassing clouds.3 mph64%30.12 "HgN/A
6:00 PM68 °FSunny.3 mph60%30.12 "Hg10 mi
5:30 PM70 °FPassing clouds.6 mph57%30.12 "HgN/A
5:00 PM72 °FSunny.6 mph53%30.09 "Hg10 mi
4:30 PM72 °FSunny.6 mph53%30.09 "Hg10 mi
4:00 PM72 °FPassing clouds.3 mph53%30.09 "HgN/A
3:30 PM73 °FPassing clouds.3 mph50%30.09 "HgN/A
3:00 PM72 °FClear.6 mph57%30.12 "Hg5 mi
2:30 PM72 °FClear.6 mph53%30.12 "Hg5 mi
2:00 PM70 °FClear.3 mph57%30.12 "Hg5 mi
1:30 PM70 °FClear.3 mph57%30.12 "Hg5 mi
1:00 PM70 °FSunny.1 mph57%30.15 "Hg10 mi
12:30 PM68 °FPassing clouds.3 mph60%30.15 "HgN/A
12:00 PM68 °FSunny.1 mph60%30.15 "Hg10 mi
11:30 AM68 °FSunny.1 mph60%30.15 "Hg10 mi
11:00 AM68 °FSunny.1 mph56%30.18 "Hg10 mi
10:30 AM66 °FSunny.1 mph60%30.15 "Hg10 mi
10:00 AM66 °FPassing clouds.3 mph60%30.15 "HgN/A
Weather by CustomWeather, © 2014

See weather overviewHow to use our weather pages